This is the latest recevied weather packets stored in our database for station/object dl1wer-13. If no packets are shown the sender has not sent any weather packets the latest 10 day(s).
| Time | Temp. | Humidity | Pressure | Rain* | Wind** | Luminosity | Snow |
|---|---|---|---|---|---|---|---|
| 1777721419 | 22.78° C | 29% | 1047.1 hPa | 0 mm | - | - | - |
| 1777720818 | 22.78° C | 30% | 1047.2 hPa | 0 mm | - | - | - |
| 1777720219 | 23.33° C | 28% | 1046.9 hPa | 0 mm | - | - | - |
| 1777719620 | 22.78° C | 30% | 1047.3 hPa | 0 mm | - | - | - |
| 1777719019 | 23.33° C | 27% | 1047.5 hPa | 0 mm | - | - | - |
| 1777718419 | 23.33° C | 28% | 1047.4 hPa | 0 mm | - | - | - |
| 1777717819 | 22.78° C | 28% | 1047.5 hPa | 0 mm | - | - | - |
| 1777717218 | 22.78° C | 26% | 1047.9 hPa | 0 mm | - | - | - |
| 1777716619 | 23.33° C | 30% | 1047.7 hPa | 0 mm | - | - | - |
| 1777716018 | 22.22° C | 32% | 1047.9 hPa | 0 mm | - | - | - |
| 1777715419 | 22.22° C | 32% | 1047.9 hPa | 0 mm | - | - | - |
| 1777714818 | 21.67° C | 34% | 1047.8 hPa | 0 mm | - | - | - |
| 1777714219 | 21.67° C | 34% | 1048 hPa | 0 mm | - | - | - |
| 1777713618 | 21.11° C | 36% | 1048.2 hPa | 0 mm | - | - | - |
| 1777713019 | 20.56° C | 35% | 1048 hPa | 0 mm | - | - | - |
| 1777712419 | 20.56° C | 40% | 1048 hPa | 0 mm | - | - | - |
| 1777711819 | 20° C | 42% | 1048.3 hPa | 0 mm | - | - | - |
| 1777711219 | 19.44° C | 42% | 1048.5 hPa | 0 mm | - | - | - |
| 1777710618 | 18.89° C | 44% | 1048.6 hPa | 0 mm | - | - | - |
| 1777710019 | 18.89° C | 43% | 1048.4 hPa | 0 mm | - | - | - |
| 1777709419 | 18.33° C | 46% | 1048.7 hPa | 0 mm | - | - | - |
| 1777708819 | 17.78° C | 48% | 1048.8 hPa | 0 mm | - | - | - |
| 1777708219 | 17.22° C | 52% | 1048.8 hPa | 0 mm | - | - | - |
| 1777707618 | 16.67° C | 52% | 1048.6 hPa | 0 mm | - | - | - |
| 1777707019 | 16.11° C | 54% | 1048.7 hPa | 0 mm | - | - | - |
* Rain latest hour (hover to see other rain measurements)
** Current wind speed in m/s (hover to see current wind gust speed)